983  
ASUS45 KREV 191810  
RWRNV  
NEVADA REGIONAL WEATHER ROUNDUP  
NATIONAL WEATHER SERVICE RENO NV  
1100 AM PDT TUE SEP 19 2017  
 
NOTE: "FAIR" INDICATES FEW OR NO CLOUDS BELOW 12,000 FEET WITH NO  
SIGNIFICANT WEATHER AND/OR S TO VISIBILITY
.  
 
NVZ001-003-004-191900-  
WESTERN NEVADA  
 
CITY SKY/WX TMP DP RH WIND PRES REMARKS
 
RENO MOSUNNY 65 26 23 NW16 29.99S  
6HR MIN TEMP: 52; 6HR MAX TEMP: 65;  
 
CARSON CITY FAIR 64 19 17 W10G16 29.99F  
MINDEN FAIR 66 21 18 W16G23 29.98S  
SLIDE MTN N/A 37 25 60 SW12 N/A  
FALLON PTSUNNY 64 29 26 N13G21 29.99S  
6HR MIN TEMP: 46; 6HR MAX TEMP: 64;  
 
LOVELOCK SUNNY 60 28 29 W8 30.01S  
6HR MIN TEMP: 51; 6HR MAX TEMP: 60;  
 
HAWTHORNE SUNNY 63 32 31 NW16 29.98R  

 
 
NVZ002-CAZ072-073-191900-  
NORTHERN AND CENTRAL SIERRA  
 
CITY SKY/WX TMP DP RH WIND PRES REMARKS
 
S. LAKE TAHOE SUNNY 57 29 34 S14G25 30.05R  
6HR MIN TEMP: 47; 6HR MAX TEMP: 57;  
 
SQUAW VLY 8000 N/A 43 21 42 SW12 N/A  
SUSANVILLE SUNNY 57 32 38 NW7 30.02S  
BLUE CANYON SUNNY N/A N/A N/A SW6 30.10R  
MAMMOTH LAKES FAIR 67 20 17 NW20G30 30.03S  
6HR MIN TEMP: 50; 6HR MAX TEMP: 68;  
 
BRIDGEPORT FAIR 63 19 18 SW7G18 30.02R  

 
 
NVZ030-031-036-191900-  
NORTHERN NEVADA  
 
CITY SKY/WX TMP DP RH WIND PRES REMARKS
 
ELKO MOSUNNY 58 24 27 W21G32 29.96R  
6HR MIN TEMP: 47; 6HR MAX TEMP: 58;  
 
WINNEMUCCA SUNNY 58 25 28 W16 30.00S  
6HR MIN TEMP: 47; 6HR MAX TEMP: 58;  
 
WENDOVER CLOUDY 59 36 42 SE8 29.91  

 
 
NVZ035-037-191900-  
CENTRAL NEVADA  
 
CITY SKY/WX TMP DP RH WIND PRES REMARKS
 
ELY MOSUNNY 63 28 26 MISG 29.95S  
6HR MIN TEMP: 47; 6HR MAX TEMP: 63;  
 
EUREKA N/A 60 30 32 W12 29.98S  
6HR MIN TEMP: 36; 6HR MAX TEMP: 60;  
 

 
 
NVZ013-014-191900-  
SOUTH CENTRAL NEVADA  
 
CITY SKY/WX TMP DP RH WIND PRES REMARKS
 
TONOPAH SUNNY 66 28 24 NW12 29.97S  
6HR MIN TEMP: 49; 6HR MAX TEMP: 67;  
 

 
 
NVZ017-020-022-191900-  
SOUTHERN NEVADA  
 
CITY SKY/WX TMP DP RH WIND PRES REMARKS
 
LAS VEGAS MOSUNNY 81 42 25 S8G21 29.81S  
6HR MIN TEMP: 75; 6HR MAX TEMP: 82;  
 
N. LAS VEGAS MOSUNNY 81 38 21 SW7 29.80F  
6HR MIN TEMP: 73; 6HR MAX TEMP: 82;  
 
NELLIS AFB MOSUNNY 83 41 22 SW12 29.79F  
6HR MIN TEMP: 76; 6HR MAX TEMP: 83;  
 
HENDERSON SUNNY 81 44 27 SW20 29.84S  
6HR MIN TEMP: 71; 6HR MAX TEMP: 81;  
 
MERCURY PTSUNNY 77 39 25 SW14G20 29.86F  
6HR MIN TEMP: 63; 6HR MAX TEMP: 77;  
 

 
 
 
CLICK HERE TO GO TO PREVIOUS BULLETINS.

The Nexlab NV Page Main Text Page